Location: *
(35.1500°N, 76.6700°W)
Time: 03:05:14
(UTC+00:00)

SKYMED 2 - Pass Details

Date: 13 October 2019
Orbit: 621 x 623 km, 97.9° (Epoch: 13 November)

Event Time Altitude Azimuth Distance (km) Brightness Sun altitude
Rises 23:21:04 0° 8° (N) 2,906 6.9 -10.3°
Reaches altitude 10° 23:23:16 10° 5° (N) 1,996 6.1 -10.8°
Maximum altitude 23:27:34 63° 285° (WNW) 693 4.1 -11.6°
Drops below altitude 10° 23:31:50 10° 204° (SSW) 1,982 6.5 -12.5°
Sets 23:34:01 0° 201° (SSW) 2,884 7.3 -13.0°
